STARLINK-34656, 65032

Orbit data source: Space-Track

STARLINK-34656, 65032 is a payload satellite owned by SpaceX/Seattle (US) in LEO that was launched on Wed, 30 Jul 2025 UTC via an FALCON 9 launch vehicle from the Air Force Eastern Test Range (AFETR). Payload-class satellites include a variety of spacecraft equipped with specific instruments for various scientific and technological missions. These include communications satellites like Starlink; space stations such as the ISS; scientific satellites like the Hubble; Earth observation satellites from companies like Planet Labs, Umbra, and HawkEye 360; GPS; miniature CubeSats for education and research; and military/defense satellites.

Loading next visibility...
Identifier
65032, 2025-161T
Orbit
LEO
Country
Flag of USUS
Related business
Manufacturer
SpaceX/Seattle
Mission
Operational spacecraft
Bus & Motor
STARLINK V2MO, Unknown motor
Mass
575 kg wet, ~530 kg dry
Launch date (UTC)
2025-07-30 (1 month ago)
Launch vehicle
FALCON 9
Launch site
Air Force Eastern Test Range (AFETR)
Object type
Payload
Rocket body
Debris
Shape & HBR
Unknown
Radar Cross Section
Large (>1 m²)

Expand to show TLE details & history
Last TLE update: 13 hours ago

TLE from 13 hours ago
0 STARLINK-34656
1 65032U 25161T   25241.91668981  .00027101  00000-0  68577-3 0  9990
2 65032  53.1593 107.4129 0000695  79.7049 297.7123 15.39589720  6033
Epoch: 2025-08-29T22:00Z
TLE epoch observation values (Epoch: 2025-08-29T22:00:01.999Z)
Latitude
13.86091°
Longitude
169.63965°
Altitude
447.259 km
Speed
7.646 km/s
True Right ascension
07h 52m 01s
True Declination
13° 46' 39"
Sunlit
Object was in daylight at epoch
Visualization orbit readout
Latitude
Unknown
Longitude
Unknown
Altitude
Unknown
Speed
Unknown
Apparent Right ascension
Unknown
Apparent Declination
Unknown
Sunlit
N/A
Visualization observer readout
Local Sidereal Time
02:44:43
Azimuth
Unknown
Elevation
Unknown
Doppler factor
Unknown
Orbital elements
Apogee altitude
448.054 km
Perigee altitude
447.105 km
Semi-major axis
6,825.716 km
Eccentricity
0.00007
Inclination
53.1593°
RAAN
107.4129°
Arg. of periapsis
79.7049°
True anomaly
297.70525°
Mean anomaly
297.7123°
Eccentric anomaly
297.70877°
Mean motion
3.84876 °/min
Orbital period
93.54 mins
BSTAR
0.00068577
Loading maneuver chart data...
Computing Atmospheric mass density...
Loading historical data...
Loading historical data...
Loading historical data...
Loading historical data...
Loading historical data...
Loading historical data...
Loading historical data...

Documentation

Showing up to 5 results
|